Cloud_Cover
91 28 5 5 4 19 48 1 0 0 0 0 0 5 23 10 4 5 5 5 7 79 10 18 22 15 5 2 1 5 0 0 0 0 0 0 0 0 0 0 0 0 0
100 98 5 5 5 5 0 0 10 2 0 0 0 92 6 100 99 91 17 4 5 87 76 8 17 24 25 5 4 0 0 0 0 0 0 0 0 0 0 0 0 0 0
100 64 8 100 36 5 1 0 0 0 0 0 0 10 60 71 64 85 6 0 1 6 43 20 7 6 95 93 8 0 0 0 0 0 0 67 0 0 0 0 0 0 0
95 99 53 8 28 2 0 0 0 0 0 0 0 5 78 57 6 5 4 0 0 5 6 64 100 28 7 1 4 5 1 0 0 0 6 62 100 100 96 6 12 16 44
100 48 5 6 5 3 2 0 0 3 2 5 41 37 64 42 5 77 5 0 4 6 100 100 100 26 4 0 0 0 0 0 0 2 46 93 74 99 82 54 36 13 0
19 48 21 94 5 10 4 4 0 0 5 0 0 3 6 5 12 64 100 2 0 98 100 70 2 0 0 0 0 0 0 0 25 44 96 27 2 83 100 53 52 60 25
15 5 5 5 4 2 0 0 0 4 14 5 5 3 30 20 100 99 28 100 81 70 4 1 5 0 0 0 0 0 0 0 100 8 12 49 49 99 96 83 100 100 89
5 5 4 5 4 2 5 4 4 5 5 4 5 5 0 28 100 100 100 48 0 0 0 1 8 15 4 0 0 0 0 5 1 0 4 64 86 100 81 100 100 99 99
12 5 5 5 5 5 5 5 5 5 24 5 14 6 69 100 100 100 8 0 0 0 0 0 5 5 22 8 1 3 1 2 12 0 1 78 100 96 100 100 96 76 95
53 10 5 5 5 5 5 5 5 5 5 5 3 6 100 100 100 5 0 0 0 0 0 5 32 5 92 90 61 5 5 55 91 0 5 9 52 100 100 100 100 100 100
20 52 77 5 5 5 5 5 2 1 1 0 2 44 100 94 0 0 0 45 5 0 0 32 100 100 82 63 32 100 88 47 100 84 5 95 100 96 100 100 100 100 100
41 94 100 47 100 6 8 6 5 16 5 5 52 100 99 100 14 0 0 0 1 3 5 5 100 100 84 90 100 100 100 100 100 99 73 100 100 99 35 100 100 100 100
98 72 56 50 100 74 35 60 13 31 41 54 5 99 100 100 97 1 3 2 0 0 0 0 11 100 100 100 92 100 97 92 100 83 99 98 48 100 53 56 100 100 100
95 99 100 90 67 57 96 74 60 46 85 86 62 42 56 100 100 9 4 0 0 0 0 0 1 44 100 100 100 99 39 97 100 100 100 100 100 100 61 57 34 96 100
66 99 100 90 7 6 47 55 94 100 70 95 68 100 100 100 63 100 60 4 0 0 0 0 0 2 85 100 100 89 5 6 59 100 100 100 100 100 100 100 41 5 6
93 98 100 100 100 72 96 82 42 95 100 63 97 100 100 100 100 100 100 100 5 21 37 2 3 1 5 63 100 100 100 100 90 24 98 90 100 100 100 100 100 100 89
100 100 26 79 100 100 100 100 100 100 100 100 100 100 100 100 100 100 100 100 100 63 99 100 15 0 0 5 5 14 85 96 100 88 8 84 30 94 100 100 100 100 100
72 33 12 8 59 79 100 100 100 100 100 100 100 100 100 100 100 100 100 97 100 100 34 34 100 40 10 19 55 7 6 46 70 70 93 5 5 5 15 99 100 100 100
24 55 24 100 90 66 100 100 100 100 100 100 100 100 100 100 100 100 100 100 100 100 100 100 100 98 5 81 91 100 100 99 100 100 100 79 5 22 72 5 26 99 100
8 79 95 100 100 100 100 100 100 100 100 100 100 100 100 100 100 100 100 100 100 100 27 99 100 100 42 93 100 100 100 100 80 100 96 64 43 85 45 5 3 6 44
5 5 5 65 100 100 100 100 100 100 100 100 100 100 100 100 99 100 100 100 100 100 97 99 100 100 91 60 95 92 100 100 100 97 34 96 100 69 96 99 100 3 5
36 100 100 100 100 97 100 100 100 100 100 100 100 100 100 100 100 100 100 100 100 100 100 90 100 100 100 100 99 95 99 100 100 100 100 100 99 94 100 87 21 100 18
92 100 100 100 100 100 100 100 98 100 100 100 100 100 100 100 100 100 100 100 100 100 100 100 100 100 100 87 97 86 99 100 100 99 100 100 100 94 96 100 100 63 50
100 100 100 100 100 100 100 100 100 100 100 100 100 100 100 100 95 71 100 100 100 100 100 100 100 100 100 100 100 100 100 91 100 100 100 100 100 100 100 100 100 51 43
100 100 100 100 100 100 100 100 100 100 100 100 100 100 99 100 100 100 90 100 100 100 100 100 100 100 100 100 100 100 100 100 100 100 100 100 100 100 100 100 100 100 100
99 100 100 100 100 100 100 100 100 100 100 100 100 100 100 100 100 100 100 100 100 100 100 100 100 100 100 100 100 100 100 100 100 100 100 100 100 100 100 85 100 95 100